HULIANWANG DIGUI 14F

Last updated on Wed Dec 10 2025 00:02:08 GMT+0000 (Coordinated Universal Time)

1 66920U 25285F 25343.64346912 .00000101 00000+0 15396-3 0 9995 2 66920 50.0088 129.9061 0005821 278.2185 81.8060 14.05849346 471
UTC large
Height (km)
Speed (km/s)
/
Latitude / Longitude
Inclination (degrees)
Orbital Period (minutes)
Azimuth
Elevation
Range (km)
Doppler Factor

Next 0 passes for location: London (51.5072 / 0.1276)

Sorry there are no passes over London.